Weather observations for the past three days for
Aquadilla, Rafael Hernandez Airport
Metric (Imperial)
Date Time (ast) Wind (kph) Vis. (km) Weather Sky Cond. Temperature (ºC) Relative Humidity Wind Chill (°C) Heat Index (°C) Pressure Precipitation (cm)
Air Dwpt 6 hour altimeter (cm) sea level (mb) 1 hr 3 hr 6 hr
Max. Min.
08 17:50 NE 24 16.09 A Few Clouds FEW021 29 23 70% 33 76.07 0.0
08 16:50 E 24 16.09 Partly Cloudy SCT022 29 23 70% 33 76.05 0.0
08 15:50 NE 24 16.09 Fair CLR 30 23 66% 34 76.05 0.0
08 14:50 NE 15 16.09 Partly Cloudy SCT041 30 22 62% 33 76.07 0.0
08 13:50 NE 19 16.09 Fair CLR 30 22 62% 33 76.1 0.0
08 12:50 NE 22 16.09 Partly Cloudy SCT023 30 22 62% 33 76.12 0.0
08 11:50 NE 22 16.09 Partly Cloudy SCT017 30 23 66% 34 76.17 0.0
08 10:50 NE 20 16.09 Fair CLR 30 22 62% 33 76.2 0.0
08 09:50 E 15 16.09 Fair CLR 29 20 58% 31 76.23 0.0
08 08:50 E 22 16.09 Fair CLR 28 21 66% 30 76.23 0.0
08 07:50 SE 15 16.09 Fair CLR 26 22 79% 28 76.2 0.0
08 06:50 SE 11 16.09 Fair CLR 24 21 83% 24 76.15 0.0
07 20:50 E 22 16.09 Mostly Cloudy BKN060 27 24 84% 30 76.23 0.0
07 19:50 E 19 16.09 A Few Clouds FEW055 27 24 84% 30 76.2 0.0
07 18:50 E 22 16.09 Overcast OVC048 28 24 79% 32 76.17 0.0
07 17:50 E 22 16.09 Partly Cloudy FEW020 SCT050 29 24 74% 34 76.12 0.0
07 16:50 E 24 16.09 A Few Clouds FEW020 29 24 74% 34 76.12 0.0
07 15:50 E 26 16.09 Overcast SCT021 OVC045 30 24 70% 35 76.15 0.0
07 14:50 NE 24 16.09 Partly Cloudy FEW020 SCT042 30 24 70% 35 76.15 0.0
07 13:50 E 20 16.09 Mostly Cloudy SCT022 BKN050 BKN060 30 24 70% 35 76.2 0.0
07 12:50 E 28 16.09 Blowing Dust FEW050 31 24 66% 37 76.28 0.0
07 11:50 NE 26 14.48 Fair CLR 30 24 70% 35 76.3 0.0
07 10:50 E 17 14.48 Partly Cloudy SCT060 30 23 66% 34 76.33 0.0
07 09:50 E 17 16.09 Partly Cloudy SCT030 30 22 62% 33 76.33 0.0
07 08:50 Calm 16.09 Fair CLR 29 22 66% 32 76.33 0.0
07 07:50 Calm 16.09 Fair CLR 27 21 70% 29 76.25 0.0
07 06:50 SE 6 16.09 Fair CLR 24 21 83% 24 76.23 0.0
07 03:50 SE 6 16.09 Fair CLR 24 22 89% 24 76.2 0.0
07 02:50 E 6 16.09 Fair CLR 24 23 94% 23 76.23 0.0
07 01:50 Calm 16.09 Partly Cloudy SCT060 25 24 94% 26 76.25 0.0
07 00:50 S 6 16.09 Partly Cloudy SCT041 SCT050 26 24 89% 28 76.3 0.0
06 20:50 NE 15 16.09 Partly Cloudy SCT044 28 25 84% 33 76.33 0.0
06 19:50 NE 17 16.09 Mostly Cloudy BKN041 28 25 84% 33 76.3 0.0
06 18:50 E 15 16.09 Partly Cloudy SCT046 28 24 79% 32 76.25 0.0
06 17:50 E 17 16.09 Fair CLR 29 24 74% 34 76.2 0.0
06 16:50 NE 13 16.09 A Few Clouds FEW025 30 24 70% 35 76.17 0.0
06 15:50 E 15 16.09 Overcast BKN037 OVC050 29 23 70% 33 76.2 0.0
06 14:50 NE 11 16.09 Mostly Cloudy BKN037 30 23 66% 34 76.23 0.0
06 13:50 N 13 16.09 A Few Clouds FEW033 30 22 62% 33 76.28 0.0
06 12:50 NE 9 16.09 Partly Cloudy SCT050 SCT060 30 22 62% 33 76.33 0.0
06 11:50 NE 13 16.09 Partly Cloudy SCT040 30 21 59% 33 76.4 0.0
06 10:50 N 15 16.09 Partly Cloudy SCT040 29 21 62% 31 76.4 0.0
06 09:50 Calm 16.09 Fair CLR 29 21 62% 31 76.4 0.0
06 08:50 E 7 16.09 Fair CLR 28 21 66% 30 76.38 0.0
06 07:50 SE 6 16.09 Fair CLR 27 20 66% 29 76.35 0.0
06 00:50 Calm 16.09 Fair CLR 25 23 89% 26 76.3 0.0
05 23:50 Calm 16.09 Fair CLR 26 25 94% 28 76.3 0.0
05 22:50 S 6 16.09 Mostly Cloudy SCT014 SCT021 BKN050 27 25 89% 31 76.3 0.0
05 21:50 W 6 16.09 Overcast OVC050 28 26 89% 34 76.3 0.0
05 20:50 NW 9 16.09 Overcast SCT014 BKN020 OVC028 28 26 89% 34 76.28 0.0
05 19:50 N 9 16.09 Mostly Cloudy SCT019 BKN026 BKN050 28 26 89% 34 76.25 0.0
05 18:50 N 11 16.09 Mostly Cloudy FEW014 BKN049 28 25 84% 33 76.2 0.0
Date Time (ast) Wind (kph) Vis. (km) Weather Sky Cond. Air Dwpt Max. Min. Relative Humidity Wind Chill (°C) Heat Index (°C) altimeter (cm) sea level (mb) 1 hr 3 hr 6 hr
6 hour
Temperature (ºC) Pressure Precipitation (cm)